Location: Bright Sky Observatory
(40.7821°N, 74.2425°W)
Time: 04:56:13
(UTC-05:00)

Amateur Radio Satellites - All Passes

Search period start: 18 January 2017 04:26
Search period end: 19 January 2017 04:26
Location: Bright Sky Observatory, 40.7821°N, 74.2425°W

Satellite Date Start Highest point End Downlink Frequencies (MHz)
Time Altitude Azimuth
AIST 2 18 Jan 04:38:12 04:42:22 53° 55° (NE) 04:46:30 435.215
Cosmos 2491 18 Jan 04:38:20 04:43:22 16° 300° (WNW) 04:48:26 435.465 / 435.565
ITAMSAT 1 18 Jan 04:43:47 04:47:04 17° 299° (WNW) 04:50:21 435.822/435.867
NOAA 15 18 Jan 04:56:20 04:58:34 13° 89° (E) 05:00:47 137.62
BRITE-PL 18 Jan 04:57:07 05:02:08 76° 101° (E) 05:06:43 437.365/2234.400
HORYU 2 18 Jan 05:09:09 05:13:24 43° 99° (E) 05:17:39 437.375
STARS 18 Jan 05:10:55 05:13:43 17° 267° (W) 05:16:33 437.465
ISS 18 Jan 05:12:14 05:15:28 61° 34° (NE) 05:18:41 145.825
GOMX 1 18 Jan 05:15:34 05:19:51 42° 98° (E) 05:23:53 467.674
CUBESAT XI-V 18 Jan 05:25:19 05:27:47 14° 270° (W) 05:30:17 437.345
Cosmos 2499 18 Jan 05:27:20 05:32:14 19° 65° (ENE) 05:37:03 435.465 / 435.565
CUTE-I 18 Jan 05:32:57 05:37:31 28° 95° (E) 05:42:03 437.470
O/OREOS (USA 219) 18 Jan 05:36:15 05:38:58 16° 100° (E) 05:41:40 437.305
LilacSat-2 18 Jan 05:45:49 05:49:28 39° 98° (E) 05:53:07 437.200
NOAA 18 18 Jan 05:57:26 06:01:54 25° 95° (E) 06:06:19 137.9125
PHONESAT 2.4 18 Jan 05:57:56 06:00:14 68° 190° (S) 06:02:32 2401.200-2431.200
AO-7 18 Jan 05:59:17 06:04:49 20° 310° (NW) 06:10:21 29.400- 29.500
STRAND 1 18 Jan 06:01:23 06:06:15 48° 71° (ENE) 06:11:08 437.568
DOVE 4 18 Jan 06:08:29 06:12:41 61° 100° (E) 06:16:46 437.250
Cubesat XI-IV 18 Jan 06:14:43 06:20:03 68° 102° (ESE) 06:25:21 437.490
AIST 2 18 Jan 06:17:59 06:20:24 15° 251° (WSW) 06:22:48 435.215
CINEMA 3 18 Jan 06:20:34 06:23:24 18° 93° (E) 06:26:17 145.822/145.860
NOAA 15 18 Jan 06:33:34 06:38:55 78° 286° (WNW) 06:44:12 137.62
GONETS M04 18 Jan 06:36:05 06:44:40 52° 76° (ENE) 06:53:14
HO-68 18 Jan 06:36:21 06:41:58 24° 93° (E) 06:47:33 435.675
BRITE-PL 18 Jan 06:37:42 06:39:49 13° 301° (WNW) 06:41:52 437.365/2234.400
RS-15 18 Jan 06:38:34 06:49:20 32° 30° (NNE) 06:59:50 29.354- 29.394
HORYU 2 18 Jan 06:46:35 06:49:37 18° 295° (WNW) 06:52:39 437.375
ISS 18 Jan 06:49:45 06:51:36 14° 230° (SW) 06:53:27 145.825
CUTE 1.7 + AOD 2 18 Jan 06:50:19 06:53:40 22° 94° (E) 06:57:00 437.475
GOMX 1 18 Jan 06:54:37 06:57:33 17° 296° (WNW) 07:00:22 467.674
CUTE-I 18 Jan 07:12:44 07:17:35 37° 292° (WNW) 07:22:26 437.470
O/OREOS (USA 219) 18 Jan 07:13:38 07:17:57 47° 296° (WNW) 07:22:16 437.305
CANX-2 18 Jan 07:18:19 07:22:33 53° 100° (E) 07:26:44 2200.000
Cosmos 2499 18 Jan 07:19:01 07:26:10 72° 266° (W) 07:33:10 435.465 / 435.565
LilacSat-2 18 Jan 07:21:11 07:23:25 15° 294° (WNW) 07:25:39 437.200
PHONESAT 2.4 18 Jan 07:32:28 07:34:10 18° 205° (SSW) 07:35:52 2401.200-2431.200
CUBEBUG 2 18 Jan 07:32:40 07:36:20 27° 96° (E) 07:40:05 437.445
SEEDS 18 Jan 07:35:07 07:39:14 46° 99° (E) 07:43:19 437.485
NOAA 18 18 Jan 07:37:34 07:42:41 42° 291° (WNW) 07:47:46 137.9125
STRAND 1 18 Jan 07:41:59 07:45:39 20° 267° (W) 07:49:20 437.568
COMPASS 1 18 Jan 07:45:45 07:49:43 39° 98° (E) 07:53:39 437.405
DOVE 4 18 Jan 07:48:25 07:49:49 11° 298° (WNW) 07:51:13 437.250
Cubesat XI-IV 18 Jan 07:56:17 07:59:32 17° 299° (WNW) 08:02:48 437.490
SO-50 18 Jan 07:56:45 08:01:16 46° 117° (ESE) 08:05:44 436.795
CINEMA 3 18 Jan 07:56:51 08:00:40 36° 288° (WNW) 08:04:33 145.822/145.860
AAUSAT CUBESAT 2 18 Jan 07:59:45 08:03:46 43° 98° (E) 08:07:44 437.432
UWE-3 18 Jan 08:06:24 08:10:30 39° 98° (E) 08:14:41 435.000/436.395/437.385
FUNcube-1 18 Jan 08:10:01 08:13:35 24° 95° (E) 08:17:11 145.935
UNISAT 6 18 Jan 08:12:34 08:15:15 16° 65° (ENE) 08:17:54 437.425
NOAA 15 18 Jan 08:16:37 08:17:46 11° 303° (WNW) 08:18:55 137.62
HO-68 18 Jan 08:23:03 08:30:08 63° 291° (WNW) 08:37:10 435.675
CUTE 1.7 + AOD 2 18 Jan 08:25:43 08:29:32 31° 290° (WNW) 08:33:19 437.475
TIGRISAT 18 Jan 08:26:09 08:29:20 21° 67° (ENE) 08:32:32 435.000
ZACube-1 18 Jan 08:31:05 08:35:17 44° 99° (E) 08:39:32 437.345
GONETS M04 18 Jan 08:33:28 08:41:06 34° 276° (W) 08:48:45
PRISM 18 Jan 08:34:48 08:38:59 79° 257° (WSW) 08:43:11 437.425
ANTELSAT 18 Jan 08:40:02 08:43:48 31° 70° (ENE) 08:47:33 437.575/2403.000
PCSat 18 Jan 08:45:02 08:48:41 18° 43° (NE) 08:52:18 145.827
RS-15 18 Jan 08:51:29 09:03:57 84° 58° (ENE) 09:15:52 29.354- 29.394
JAS-2 18 Jan 08:55:08 08:58:47 19° 60° (ENE) 09:02:37 435.910
CANX-2 18 Jan 08:55:37 08:57:57 14° 296° (WNW) 09:00:15 2200.000
HUMSAT D 18 Jan 09:06:07 09:08:54 17° 93° (E) 09:11:40 437.325/437.525
CUBEBUG 2 18 Jan 09:09:17 09:12:53 26° 291° (WNW) 09:16:33 437.445
SEEDS 18 Jan 09:11:57 09:14:32 16° 295° (WNW) 09:17:06 437.485
Oscar 11 18 Jan 09:12:22 09:16:44 75° 284° (WNW) 09:21:05 145.826/435.025
COMPASS 1 18 Jan 09:22:07 09:24:58 18° 294° (WNW) 09:27:46 437.405
AAUSAT CUBESAT 2 18 Jan 09:36:16 09:38:52 16° 295° (WNW) 09:41:27 437.432
SO-50 18 Jan 09:38:07 09:41:56 24° 315° (NW) 09:45:43 436.795
DELFI C3 18 Jan 09:39:31 09:43:31 75° 100° (E) 09:47:30 145.870
UWE-3 18 Jan 09:43:39 09:46:41 19° 293° (WNW) 09:49:45 435.000/436.395/437.385
FUNcube-1 18 Jan 09:46:00 09:49:48 30° 290° (WNW) 09:53:40 145.935
UNISAT 6 18 Jan 09:47:32 09:51:36 43° 261° (W) 09:55:41 437.425
TIGRISAT 18 Jan 10:02:00 10:05:50 32° 263° (W) 10:09:40 435.000
ZACube-1 18 Jan 10:08:23 10:11:13 17° 294° (WNW) 10:14:06 437.345
QB50P1 18 Jan 10:10:35 10:14:15 30° 69° (ENE) 10:17:54 145.935-145.965
HO-68 18 Jan 10:13:47 10:16:27 12° 310° (NW) 10:19:07 435.675
POLYITAN 1 18 Jan 10:13:49 10:17:34 32° 70° (ENE) 10:21:19 437.675
QB50P2 18 Jan 10:14:51 10:18:41 36° 71° (ENE) 10:22:33 145.880/145.840
ANTELSAT 18 Jan 10:17:15 10:20:32 21° 266° (W) 10:23:49 437.575/2403.000
BY70-1 18 Jan 10:22:03 10:24:54 25° 95° (E) 10:27:37 436.1900
PCSat 18 Jan 10:27:17 10:32:45 81° 243° (WSW) 10:38:09 145.827
CUBEBUG 1 18 Jan 10:33:43 10:34:39 11° 90° (E) 10:35:34 437.445
POPSAT HIP 1 18 Jan 10:36:43 10:40:50 58° 74° (ENE) 10:44:57 437.405
JAS-2 18 Jan 10:38:08 10:43:16 58° 260° (W) 10:48:53 435.910
HUMSAT D 18 Jan 10:40:39 10:44:40 41° 288° (WNW) 10:48:41 437.325/437.525
DUCHIFAT 1 18 Jan 10:50:40 10:54:49 73° 75° (ENE) 10:58:59 145.980
ESTCUBE 1 18 Jan 10:52:18 10:56:22 32° 97° (E) 11:00:25 437.505/2401.250
NANOSAT C BR1 18 Jan 10:54:50 10:59:02 89° 39° (NE) 11:03:14 145.865
RS-15 18 Jan 11:05:36 11:14:56 27° 259° (W) 11:24:02 29.354- 29.394
VELOX 1 18 Jan 11:15:01 11:18:13 20° 94° (E) 11:21:25 145.980
BUGSAT 1 18 Jan 11:35:28 11:39:32 84° 80° (E) 11:43:37 437.445
QB50P1 18 Jan 11:46:44 11:50:01 22° 265° (W) 11:53:18 145.935-145.965
POLYITAN 1 18 Jan 11:50:18 11:53:24 20° 266° (W) 11:56:31 437.675
QB50P2 18 Jan 11:51:40 11:54:36 18° 267° (W) 11:57:32 145.880/145.840
BY70-1 18 Jan 11:52:48 11:55:03 17° 293° (WNW) 11:57:15 436.1900
DX 1 18 Jan 11:55:01 11:58:37 25° 96° (E) 12:02:11 434.975-435.025
UKube-1 18 Jan 11:59:20 12:02:33 20° 94° (E) 12:05:45 .
Gurwin Techsat 1B 18 Jan 11:59:42 12:03:48 23° 64° (ENE) 12:07:54 435.225
SPROUT 18 Jan 12:01:26 12:05:33 47° 99° (E) 12:09:38 437.525
Oscar 19 18 Jan 12:04:03 12:09:00 45° 70° (ENE) 12:13:56 437.125/150
CUBEBUG 1 18 Jan 12:07:03 12:11:21 65° 286° (WNW) 12:15:37 437.445
POPSAT HIP 1 18 Jan 12:15:38 12:16:57 11° 270° (W) 12:18:17 437.405
AISAT 18 Jan 12:16:54 12:21:19 81° 283° (WNW) 12:25:40 437.250
ESTCUBE 1 18 Jan 12:29:21 12:33:01 24° 293° (WNW) 12:36:38 437.505/2401.250
50 SAT 18 Jan 12:36:33 12:40:01 52° 286° (WNW) 12:43:28 437.505
ITAMSAT 1 18 Jan 12:45:03 12:47:06 12° 59° (ENE) 12:49:10 435.822/435.867
Cosmos 2491 18 Jan 12:47:01 12:55:32 51° 76° (ENE) 13:04:02 435.465 / 435.565
CUSAT 1 18 Jan 12:49:43 12:55:50 24° 64° (ENE) 13:01:46 437.405
VELOX 1 18 Jan 12:50:44 12:54:47 36° 290° (WNW) 12:58:48 145.980
YUBILEINY 18 Jan 12:55:56 13:02:27 24° 80° (E) 13:08:59 435.215
AO-7 18 Jan 13:12:26 13:19:23 31° 57° (ENE) 13:26:21 29.400- 29.500
DANDE 18 Jan 13:16:33 13:20:21 14° 62° (ENE) 13:24:20 436.750
DX 1 18 Jan 13:31:02 13:34:45 28° 292° (WNW) 13:38:27 434.975-435.025
UKube-1 18 Jan 13:34:45 13:38:39 34° 290° (WNW) 13:42:32 .
TISAT 1 18 Jan 13:37:49 13:42:00 81° 103° (ESE) 13:46:10 437.305
Gurwin Techsat 1B 18 Jan 13:38:21 13:43:25 46° 261° (W) 13:48:32 435.225
SPROUT 18 Jan 13:38:34 13:41:04 15° 295° (WNW) 13:43:34 437.525
AO-85 18 Jan 13:40:08 13:44:29 35° 116° (ESE) 13:48:34 145.980
Cosmos 2504 18 Jan 13:43:44 13:50:30 26° 83° (E) 13:57:00 435.465 / 435.565
Oscar 19 18 Jan 13:44:33 13:48:29 22° 266° (W) 13:52:27 437.125/150
AIST 1 18 Jan 14:04:45 14:09:09 87° 94° (E) 14:13:32
ITUPSAT 1 18 Jan 14:10:45 14:15:06 33° 97° (E) 14:19:25 437.325
ITAMSAT 1 18 Jan 14:20:38 14:25:48 87° 252° (WSW) 14:31:01 435.822/435.867
CUSAT 1 18 Jan 14:30:34 14:38:35 79° 263° (W) 14:46:06 437.405
BRITE-PL 18 Jan 14:31:41 14:34:03 13° 59° (ENE) 14:36:24 437.365/2234.400
Cosmos 2491 18 Jan 14:44:24 14:52:01 35° 275° (W) 14:59:39 435.465 / 435.565
BEESAT 18 Jan 14:46:40 14:51:29 80° 104° (ESE) 14:56:16 436.000
SWISSCUBE 18 Jan 14:48:03 14:52:53 89° 277° (W) 14:57:41 437.505
YUBILEINY 18 Jan 14:49:33 14:58:20 72° 280° (W) 15:07:12 435.215
DANDE 18 Jan 14:56:35 15:04:11 67° 78° (ENE) 15:12:31 436.750
MOZHAYETS 4 18 Jan 15:02:51 15:07:07 36° 97° (E) 15:11:23
AO-7 18 Jan 15:03:18 15:11:34 65° 255° (WSW) 15:19:55 29.400- 29.500
AO-85 18 Jan 15:20:57 15:24:56 27° 311° (NW) 15:28:42 145.980
Cosmos 2504 18 Jan 15:34:33 15:43:15 66° 280° (W) 15:51:29 435.465 / 435.565
CUBESAT XI-V 18 Jan 15:43:41 15:46:20 15° 91° (E) 15:48:57 437.345
O/OREOS (USA 219) 18 Jan 15:44:40 15:48:40 30° 60° (ENE) 15:52:39 437.305
ITUPSAT 1 18 Jan 15:48:47 15:52:47 26° 293° (WNW) 15:56:45 437.325
KKS-1 18 Jan 15:59:05 16:03:19 43° 99° (E) 16:07:30 437.445
Cubesat XI-IV 18 Jan 15:59:37 16:02:26 15° 60° (ENE) 16:05:16 437.490
M-CUBED/EXP-1 PRIME 18 Jan 16:03:02 16:06:22 52° 105° (ESE) 16:09:33 437.505
BRITE-PL 18 Jan 16:05:57 16:11:38 82° 76° (ENE) 16:17:19 437.365/2234.400
HORYU 2 18 Jan 16:06:48 16:10:52 38° 71° (ENE) 16:14:59 437.375
CUSAT 1 18 Jan 16:14:58 16:19:14 16° 281° (WNW) 16:23:24 437.405
NOAA 15 18 Jan 16:15:22 16:19:18 22° 63° (ENE) 16:23:15 137.62
BEESAT 3 18 Jan 16:16:52 16:20:30 41° 116° (ESE) 16:24:13 437.485
GOMX 1 18 Jan 16:22:01 16:27:15 50° 73° (ENE) 16:32:18 467.674
BEESAT 18 Jan 16:26:46 16:28:35 12° 300° (WNW) 16:30:24 436.000
LilacSat-2 18 Jan 16:28:10 16:30:53 19° 68° (ENE) 16:33:36 437.200
SO-50 18 Jan 16:28:21 16:32:35 38° 51° (NE) 16:36:45 436.795
SWISSCUBE 18 Jan 16:29:00 16:29:54 10° 301° (WNW) 16:30:47 437.505
DANDE 18 Jan 16:40:13 16:46:27 28° 273° (W) 16:53:07 436.750
MOZHAYETS 4 18 Jan 16:40:26 16:44:04 23° 293° (WNW) 16:47:41
AUBIESAT-1 18 Jan 16:41:40 16:44:59 54° 291° (WNW) 16:48:12 437.475
YUBILEINY 18 Jan 16:52:31 16:56:54 14° 302° (WNW) 17:01:19 435.215
CUTE-I 18 Jan 16:54:24 16:59:25 45° 70° (ENE) 17:04:27 437.470
BEESAT 2 18 Jan 16:56:35 17:00:22 47° 117° (ESE) 17:04:13 435.950
STARS 18 Jan 16:58:25 17:02:48 88° 98° (E) 17:07:11 437.465
AO-7 18 Jan 17:04:33 17:05:50 10° 274° (W) 17:07:07 29.400- 29.500
HO-68 18 Jan 17:06:08 17:10:54 19° 55° (NE) 17:15:40 435.675
DOVE 4 18 Jan 17:12:38 17:17:39 63° 75° (ENE) 17:22:24 437.250
CUBESAT XI-V 18 Jan 17:19:26 17:24:02 55° 287° (WNW) 17:28:34 437.345
CINEMA 3 18 Jan 17:22:19 17:25:13 17° 67° (ENE) 17:28:04 145.822/145.860
NOAA 18 18 Jan 17:23:10 17:28:25 48° 70° (ENE) 17:33:41 137.9125
O/OREOS (USA 219) 18 Jan 17:24:14 17:27:56 25° 257° (WSW) 17:31:37 437.305
Cosmos 2504 18 Jan 17:34:49 17:38:13 13° 301° (WNW) 17:41:34 435.465 / 435.565
Cubesat XI-IV 18 Jan 17:36:31 17:41:50 77° 257° (WSW) 17:47:11 437.490
KKS-1 18 Jan 17:36:33 17:39:32 18° 295° (WNW) 17:42:31 437.445
CUTE 1.7 + AOD 2 18 Jan 17:43:28 17:46:03 16° 65° (ENE) 17:48:37 437.475
HORYU 2 18 Jan 17:44:27 17:47:33 19° 266° (W) 17:50:41 437.375
BRITE-PL 18 Jan 17:47:54 17:50:39 14° 272° (W) 17:53:25 437.365/2234.400
NOAA 15 18 Jan 17:53:34 17:58:41 50° 260° (W) 18:03:51 137.62
BEESAT 3 18 Jan 17:55:25 17:58:17 19° 314° (NW) 18:01:12 437.485
GOMX 1 18 Jan 18:01:28 18:05:30 21° 267° (W) 18:09:26 467.674
LilacSat-2 18 Jan 18:01:43 18:04:59 28° 264° (W) 18:08:16 437.200
Cosmos 2499 18 Jan 18:04:55 18:09:56 17° 80° (E) 18:14:45 435.465 / 435.565
SO-50 18 Jan 18:09:16 18:12:49 23° 248° (WSW) 18:16:20 436.795
CANX-2 18 Jan 18:10:42 18:14:34 35° 71° (ENE) 18:18:28 2200.000
STRAND 1 18 Jan 18:13:12 18:16:25 16° 92° (E) 18:19:36 437.568
SEEDS 18 Jan 18:26:30 18:30:11 30° 70° (ENE) 18:33:55 437.485
CUBEBUG 2 18 Jan 18:31:08 18:34:16 21° 68° (ENE) 18:37:24 437.445
CUTE-I 18 Jan 18:35:32 18:39:38 22° 266° (W) 18:43:45 437.470
BEESAT 2 18 Jan 18:35:40 18:38:24 18° 315° (NW) 18:41:11 435.950
COMPASS 1 18 Jan 18:36:17 18:39:44 26° 69° (ENE) 18:43:14 437.405
AIST 2 18 Jan 18:38:18 18:39:26 11° 107° (ESE) 18:40:34 435.215
AAUSAT CUBESAT 2 18 Jan 18:49:40 18:53:13 27° 70° (ENE) 18:56:47 437.432
HO-68 18 Jan 18:50:29 18:57:43 87° 256° (WSW) 19:04:58 435.675
DOVE 4 18 Jan 18:52:56 18:55:38 14° 269° (W) 18:58:17 437.250
CINEMA 3 18 Jan 18:57:47 19:02:04 43° 261° (W) 19:06:12 145.822/145.860
UWE-3 18 Jan 19:03:29 19:07:04 29° 70° (ENE) 19:10:41 435.000/436.395/437.385
NOAA 18 18 Jan 19:05:02 19:09:17 23° 266° (W) 19:13:33 137.9125
FUNcube-1 18 Jan 19:06:06 19:08:51 18° 66° (ENE) 19:11:37 145.935
CUTE 1.7 + AOD 2 18 Jan 19:17:25 19:21:29 46° 261° (W) 19:25:36 437.475
ZACube-1 18 Jan 19:26:53 19:30:33 32° 71° (ENE) 19:34:15 437.345
GONETS M04 18 Jan 19:36:29 19:44:56 60° 91° (E) 19:53:30
CANX-2 18 Jan 19:47:28 19:50:31 19° 267° (W) 19:53:34 2200.000
STRAND 1 18 Jan 19:50:53 19:55:56 58° 288° (WNW) 20:00:58 437.568
Cosmos 2499 18 Jan 19:53:30 20:02:04 88° 277° (W) 20:10:03 435.465 / 435.565
HUMSAT D 18 Jan 19:58:42 20:00:01 11° 63° (ENE) 20:01:21 437.325/437.525
SEEDS 18 Jan 20:02:37 20:05:53 22° 266° (W) 20:09:13 437.485
Oscar 11 18 Jan 20:06:24 20:10:42 79° 75° (ENE) 20:15:02 145.826/435.025
CUBEBUG 2 18 Jan 20:07:00 20:10:44 31° 264° (W) 20:14:26 437.445
COMPASS 1 18 Jan 20:11:42 20:15:12 26° 265° (W) 20:18:44 437.405
AIST 2 18 Jan 20:13:13 20:17:18 67° 304° (NW) 20:21:28 435.215
PRISM 18 Jan 20:17:59 20:20:09 14° 92° (E) 20:22:17 437.425
DELFI C3 18 Jan 20:24:33 20:28:18 39° 72° (ENE) 20:32:04 145.870
AAUSAT CUBESAT 2 18 Jan 20:25:16 20:28:38 24° 265° (W) 20:32:02 437.432
UWE-3 18 Jan 20:40:22 20:43:33 21° 266° (W) 20:46:45 435.000/436.395/437.385
FUNcube-1 18 Jan 20:40:58 20:44:48 37° 262° (W) 20:48:41 145.935
HO-68 18 Jan 20:42:39 20:46:21 15° 271° (W) 20:50:03 435.675
ZACube-1 18 Jan 21:03:52 21:06:54 20° 266° (W) 21:09:57 437.345
HUMSAT D 18 Jan 21:31:02 21:35:04 62° 259° (W) 21:39:11 437.325/437.525
GONETS M04 18 Jan 21:34:55 21:42:16 30° 291° (WNW) 21:49:44
UNISAT 6 18 Jan 21:38:54 21:43:00 36° 98° (E) 21:47:10 437.425
JAS-2 18 Jan 21:46:22 21:51:55 23° 92° (E) 21:57:43 435.910
Cosmos 2499 18 Jan 21:51:00 21:56:12 18° 296° (WNW) 22:01:13 435.465 / 435.565
ESTCUBE 1 18 Jan 21:51:32 21:55:25 29° 69° (ENE) 21:59:20 437.505/2401.250
PRISM 18 Jan 21:51:44 21:55:40 45° 288° (WNW) 21:59:34 437.425
ISS 18 Jan 21:52:35 21:55:04 20° 133° (SE) 21:57:33 145.825
TIGRISAT 18 Jan 21:52:45 21:57:02 48° 99° (E) 22:01:23 435.000
DELFI C3 18 Jan 22:00:54 22:03:16 15° 268° (W) 22:05:39 145.870
BY70-1 18 Jan 22:06:15 22:09:09 87° 83° (E) 22:12:21 436.1900
ANTELSAT 18 Jan 22:07:23 22:11:49 75° 102° (ESE) 22:16:20 437.575/2403.000
AO-85 18 Jan 22:11:55 22:15:13 25° 48° (NE) 22:18:28 145.980
VELOX 1 18 Jan 22:12:18 22:15:20 18° 65° (ENE) 22:18:23 145.980
DUCHIFAT 1 18 Jan 22:37:03 22:38:27 11° 91° (E) 22:39:50 145.980
NANOSAT C BR1 18 Jan 22:40:45 22:43:03 14° 92° (E) 22:45:20 145.865
DX 1 18 Jan 22:50:26 22:53:49 22° 67° (ENE) 22:57:13 434.975-435.025
UKube-1 18 Jan 22:53:57 22:56:52 18° 65° (ENE) 22:59:47 .
SPROUT 18 Jan 22:54:29 22:58:21 34° 71° (ENE) 23:02:13 437.525
CUBEBUG 1 18 Jan 23:02:07 23:06:33 84° 257° (WSW) 23:10:59 437.445
YUBILEINY 18 Jan 23:08:03 23:09:48 11° 54° (NE) 23:11:32 435.215
50 SAT 18 Jan 23:10:30 23:13:58 53° 74° (ENE) 23:17:29 437.505
RS-15 18 Jan 23:13:14 23:24:35 57° 112° (ESE) 23:36:25 29.354- 29.394
AISAT 18 Jan 23:13:25 23:17:53 86° 76° (ENE) 23:22:21 437.250
UNISAT 6 18 Jan 23:16:10 23:19:29 21° 293° (WNW) 23:22:50 437.425
BUGSAT 1 18 Jan 23:19:27 23:20:51 11° 91° (E) 23:22:14 437.445
ISS 18 Jan 23:28:13 23:31:20 44° 329° (NNW) 23:34:29 145.825
ESTCUBE 1 18 Jan 23:28:21 23:32:10 27° 265° (W) 23:36:01 437.505/2401.250
PCSat 18 Jan 23:28:48 23:31:06 13° 102° (ESE) 23:33:23 145.827
JAS-2 18 Jan 23:30:14 23:37:17 71° 287° (WNW) 23:44:58 435.910
QB50P1 18 Jan 23:30:22 23:34:31 57° 100° (E) 23:38:40 145.935-145.965
TIGRISAT 18 Jan 23:30:36 23:33:21 17° 295° (WNW) 23:36:08 435.000
POLYITAN 1 18 Jan 23:33:52 23:38:05 64° 102° (ESE) 23:42:16 437.675
QB50P2 18 Jan 23:35:02 23:39:16 71° 102° (ESE) 23:43:29 145.880/145.840
ANTELSAT 18 Jan 23:46:38 23:47:56 11° 298° (WNW) 23:49:14 437.575/2403.000
VELOX 1 18 Jan 23:47:14 23:51:28 43° 261° (W) 23:55:43 145.980
AO-85 18 Jan 23:52:14 23:55:33 27° 246° (WSW) 23:58:53 145.980
POPSAT HIP 1 18 Jan 23:57:05 00:01:17 71° 284° (WNW) 00:05:29 437.405
DUCHIFAT 1 19 Jan 00:10:21 00:14:28 57° 286° (WNW) 00:18:34 145.980
AIST 1 19 Jan 00:12:47 00:15:59 20° 73° (ENE) 00:19:09
NANOSAT C BR1 19 Jan 00:14:58 00:19:00 46° 287° (WNW) 00:23:02 145.865
Oscar 19 19 Jan 00:17:07 00:20:13 16° 91° (E) 00:23:19 437.125/150
BEESAT 19 Jan 00:19:43 00:20:19 10° 59° (ENE) 00:20:55 436.000
SWISSCUBE 19 Jan 00:19:56 00:21:40 12° 60° (ENE) 00:23:24 437.505
DX 1 19 Jan 00:25:51 00:29:48 33° 262° (W) 00:33:47 434.975-435.025
UKube-1 19 Jan 00:28:28 00:32:34 41° 261° (W) 00:36:41 .
TISAT 1 19 Jan 00:28:46 00:32:51 56° 74° (ENE) 00:36:57 437.305
SPROUT 19 Jan 00:31:16 00:34:21 19° 266° (W) 00:37:27 437.525
BEESAT 3 19 Jan 00:34:02 00:37:22 24° 48° (NE) 00:40:41 437.485
BUGSAT 1 19 Jan 00:52:35 00:56:30 52° 287° (WNW) 01:00:26 437.445
YUBILEINY 19 Jan 01:00:09 01:08:52 58° 78° (ENE) 01:17:26 435.215
ISS 19 Jan 01:06:33 01:08:27 14° 348° (NNW) 01:10:22 145.825
QB50P1 19 Jan 01:07:55 01:09:48 13° 297° (WNW) 01:11:41 145.935-145.965
PCSat 19 Jan 01:08:18 01:13:43 83° 299° (WNW) 01:19:11 145.827
POLYITAN 1 19 Jan 01:11:47 01:13:19 12° 297° (WNW) 01:14:51 437.675
QB50P2 19 Jan 01:13:29 01:14:28 11° 298° (WNW) 01:15:26 145.880/145.840
BEESAT 2 19 Jan 01:14:38 01:18:10 28° 49° (NE) 01:21:41 435.950
ITUPSAT 1 19 Jan 01:17:09 01:21:31 38° 69° (ENE) 01:25:55 437.325
JAS-2 19 Jan 01:17:48 01:21:17 14° 304° (WNW) 01:24:53 435.910
RS-15 19 Jan 01:25:55 01:37:24 49° 316° (NW) 01:49:19 29.354- 29.394
Cosmos 2504 19 Jan 01:28:18 01:35:20 43° 74° (ENE) 01:42:05 435.465 / 435.565
Cosmos 2491 19 Jan 01:47:35 01:56:02 59° 91° (E) 02:04:32 435.465 / 435.565
AIST 1 19 Jan 01:49:50 01:53:36 31° 270° (W) 01:57:21
BEESAT 19 Jan 01:52:33 01:57:19 88° 78° (ENE) 02:02:06 436.000
CUSAT 1 19 Jan 01:53:19 01:55:42 13° 77° (ENE) 01:58:18 437.405
AUBIESAT-1 19 Jan 01:53:48 01:56:17 15° 61° (ENE) 01:58:41 437.475
SWISSCUBE 19 Jan 01:54:01 01:58:46 80° 258° (WSW) 02:03:33 437.505
Gurwin Techsat 1B 19 Jan 01:54:25 01:59:46 72° 103° (ESE) 02:05:03 435.225
Oscar 19 19 Jan 01:54:50 01:59:56 60° 287° (WNW) 02:04:59 437.125/150
MOZHAYETS 4 19 Jan 02:04:25 02:08:29 33° 70° (ENE) 02:12:36
TISAT 1 19 Jan 02:07:20 02:08:49 12° 269° (W) 02:10:18 437.305
BEESAT 3 19 Jan 02:11:26 02:14:59 31° 245° (WSW) 02:18:31 437.485
ITAMSAT 1 19 Jan 02:33:58 02:38:40 33° 97° (E) 02:43:21 435.822/435.867
ISS 19 Jan 02:44:15 02:45:59 14° 9° (N) 02:47:43 145.825
PHONESAT 2.4 19 Jan 02:44:48 02:46:55 31° 161° (SSE) 02:49:02 2401.200-2431.200
CUBESAT XI-V 19 Jan 02:47:02 02:49:44 15° 63° (ENE) 02:52:26 437.345
M-CUBED/EXP-1 PRIME 19 Jan 02:47:41 02:52:08 73° 70° (ENE) 02:56:17 437.505
BEESAT 2 19 Jan 02:52:27 02:55:53 27° 246° (WSW) 02:59:17 435.950
PCSat 19 Jan 02:54:53 02:57:58 15° 319° (NW) 03:01:05 145.827
ITUPSAT 1 19 Jan 02:55:44 02:59:26 22° 266° (W) 03:03:10 437.325
KKS-1 19 Jan 02:56:42 03:00:49 39° 71° (ENE) 03:04:58 437.445
YUBILEINY 19 Jan 02:57:47 03:05:05 31° 277° (W) 03:12:21 435.215
AIST 2 19 Jan 02:58:35 02:59:37 11° 38° (NE) 03:00:39 435.215
AO-7 19 Jan 03:05:16 03:13:12 45° 100° (E) 03:21:03 29.400- 29.500
Cosmos 2504 19 Jan 03:22:05 03:28:27 32° 275° (W) 03:34:37 435.465 / 435.565
AUBIESAT-1 19 Jan 03:26:06 03:30:21 51° 255° (WSW) 03:34:22 437.475
CUSAT 1 19 Jan 03:31:25 03:36:15 76° 281° (W) 03:42:41 437.405
Gurwin Techsat 1B 19 Jan 03:36:02 03:39:05 16° 300° (WNW) 03:42:07 435.225
MOZHAYETS 4 19 Jan 03:42:02 03:45:41 23° 266° (W) 03:49:23
RS-15 19 Jan 03:44:47 03:54:03 24° 348° (NNW) 04:03:25 29.354- 29.394
Cosmos 2491 19 Jan 03:45:59 03:53:21 30° 291° (WNW) 04:00:48 435.465 / 435.565
STARS 19 Jan 03:54:22 03:58:44 75° 75° (ENE) 04:03:07 437.465
DANDE 19 Jan 04:06:08 04:09:40 60° 95° (E) 04:14:25 436.750
BRITE-PL 19 Jan 04:12:33 04:16:39 26° 93° (E) 04:20:28 437.365/2234.400
ITAMSAT 1 19 Jan 04:13:32 04:18:02 30° 293° (WNW) 04:22:31 435.822/435.867
PHONESAT 2.4 19 Jan 04:18:37 04:20:56 84° 185° (S) 04:23:15 2401.200-2431.200
ISS 19 Jan 04:20:09 04:23:11 35° 28° (NNE) 04:26:12 145.825
